TimeEST,TemperatureF,Dew PointF,Humidity,Sea Level PressureIn,VisibilityMPH,Wind Direction,Wind SpeedMPH,Gust SpeedMPH,PrecipitationIn,Events,Conditions,WindDirDegrees,DateUTC
12:53 AM,21.0,14.0,74,29.61,5.0,NW,11.5,-,0.00,Snow,Light Snow,310,2014-01-14 05:53:00
1:27 AM,21.2,14.0,74,29.57,5.0,WNW,9.2,-,0.00,Snow,Light Snow,300,2014-01-14 06:27:00
1:36 AM,21.2,15.8,80,29.57,5.0,NW,9.2,-,0.00,Snow,Light Snow,310,2014-01-14 06:36:00
1:53 AM,21.0,14.0,74,29.62,5.0,NW,8.1,-,0.00,Snow,Light Snow,310,2014-01-14 06:53:00
2:32 AM,19.4,15.8,86,29.58,4.0,NW,8.1,-,0.00,Snow,Light Snow,320,2014-01-14 07:32:00
2:53 AM,19.9,14.0,78,29.63,5.0,NNW,6.9,-,0.00,Snow,Light Snow,330,2014-01-14 07:53:00
3:53 AM,19.0,12.9,77,29.65,9.0,NNW,5.8,-,0.00,,Overcast,340,2014-01-14 08:53:00
4:53 AM,18.0,12.0,78,29.66,10.0,North,3.5,-,N/A,,Overcast,350,2014-01-14 09:53:00
5:53 AM,14.0,10.9,88,29.68,10.0,Calm,Calm,-,N/A,,Mostly Cloudy,0,2014-01-14 10:53:00
6:32 AM,12.2,10.4,92,29.63,10.0,Calm,Calm,-,N/A,,Mostly Cloudy,0,2014-01-14 11:32:00
6:53 AM,10.9,7.0,84,29.70,10.0,NNW,3.5,-,N/A,,Overcast,330,2014-01-14 11:53:00
7:53 AM,16.0,10.9,81,29.71,7.0,NNE,5.8,-,N/A,,Overcast,20,2014-01-14 12:53:00
8:53 AM,17.1,10.9,77,29.73,10.0,North,9.2,-,N/A,,Overcast,10,2014-01-14 13:53:00
9:53 AM,17.1,10.9,77,29.77,8.0,NNE,9.2,-,0.00,Snow,Light Snow,30,2014-01-14 14:53:00
10:53 AM,16.0,9.0,74,29.79,2.0,NNE,15.0,-,0.00,Snow,Light Snow,20,2014-01-14 15:53:00
11:10 AM,15.8,8.6,73,29.73,5.0,NNE,9.2,-,0.00,Snow,Light Snow,30,2014-01-14 16:10:00
11:42 AM,15.8,8.6,73,29.75,1.8,NNE,11.5,-,0.00,Snow,Light Snow,20,2014-01-14 16:42:00
11:53 AM,14.0,8.1,77,29.82,1.2,NNE,12.7,-,0.00,Snow,Light Snow,30,2014-01-14 16:53:00
12:10 PM,14.0,6.8,73,29.76,2.0,NNE,11.5,-,0.00,Snow,Light Snow,20,2014-01-14 17:10:00
12:18 PM,14.0,6.8,73,29.76,1.5,NE,9.2,-,0.00,Snow,Light Snow,40,2014-01-14 17:18:00
12:37 PM,12.2,6.8,79,29.76,3.0,NE,6.9,-,0.00,Snow,Light Snow,50,2014-01-14 17:37:00
12:44 PM,14.0,6.8,73,29.76,5.0,NE,9.2,-,0.00,Snow,Light Snow,40,2014-01-14 17:44:00
12:53 PM,14.0,7.0,74,29.82,4.0,NE,6.9,-,0.00,Snow,Light Snow,40,2014-01-14 17:53:00
1:21 PM,14.0,6.8,73,29.76,5.0,NNE,11.5,-,0.00,Snow,Light Snow,30,2014-01-14 18:21:00
1:47 PM,14.0,6.8,73,29.77,3.0,North,9.2,-,0.00,Snow,Light Snow,10,2014-01-14 18:47:00
1:53 PM,14.0,7.0,74,29.83,4.0,North,10.4,-,0.00,Snow,Light Snow,10,2014-01-14 18:53:00
2:00 PM,14.0,6.8,73,29.77,2.5,North,8.1,-,0.00,Snow,Light Snow,10,2014-01-14 19:00:00
2:09 PM,14.0,6.8,73,29.78,3.0,NNE,9.2,-,0.00,Snow,Light Snow,20,2014-01-14 19:09:00
2:53 PM,14.0,7.0,74,29.86,10.0,North,9.2,-,0.00,,Overcast,10,2014-01-14 19:53:00
3:37 PM,14.0,6.8,73,29.81,2.5,North,10.4,-,0.00,Snow,Light Snow,10,2014-01-14 20:37:00
3:45 PM,14.0,6.8,73,29.81,9.0,NNE,9.2,-,0.00,,Overcast,20,2014-01-14 20:45:00
3:53 PM,14.0,7.0,74,29.88,6.0,North,10.4,-,0.00,,Haze,10,2014-01-14 20:53:00
4:03 PM,14.0,8.6,79,29.82,1.8,North,8.1,-,0.00,Snow,Light Snow,10,2014-01-14 21:03:00
4:26 PM,14.0,8.6,79,29.83,3.0,North,11.5,-,0.00,Snow,Light Snow,360,2014-01-14 21:26:00
4:53 PM,14.0,7.0,74,29.90,7.0,North,9.2,-,0.00,,Overcast,360,2014-01-14 21:53:00
5:53 PM,12.9,6.1,74,29.91,10.0,North,11.5,-,N/A,,Mostly Cloudy,10,2014-01-14 22:53:00
6:53 PM,14.0,7.0,74,29.94,10.0,North,9.2,-,N/A,,Overcast,350,2014-01-14 23:53:00
7:53 PM,15.1,6.1,68,29.94,10.0,North,12.7,-,N/A,,Overcast,360,2014-01-15 00:53:00
8:53 PM,14.0,6.1,71,29.95,10.0,North,10.4,-,N/A,,Overcast,10,2014-01-15 01:53:00
9:53 PM,14.0,6.1,71,29.97,10.0,North,9.2,-,N/A,,Overcast,350,2014-01-15 02:53:00
10:53 PM,14.0,5.0,67,29.97,10.0,North,9.2,-,N/A,,Overcast,360,2014-01-15 03:53:00
11:53 PM,12.9,3.9,67,29.98,10.0,North,11.5,-,N/A,,Overcast,350,2014-01-15 04:53:00